Flag for Germany Weather past 2 weeks in Sankt Augustin, North Rhine-Westphalia, Germany

43 °F

Partly cloudy.

Feels Like: 39 °F
Forecast: 33 / 45 °F
Wind: 7 mph from Northwest

Location: Koeln / Bonn

Current Time: Nov 25, 2015 at 6:02:30 PM

Latest Report: Nov 25, 2015 at 5:20 PM

Visibility: N/A

Pressure: 29.71 "Hg

Humidity: 87%

Dew point: 39 °F

Location of Sankt AugustinLocation

Historic Weather in Sankt Augustin — Graph


Sankt Augustin temperature yesterday

Maximum temperature yesterday: 39 °F (at 1:50 PM)
Minimum temperature yesterday: 32 °F (at 5:20 AM)
Average temperature yesterday: 34 °F

Past Weeks' High & Low Weather Summary

High61 °F (Nov 12, 11:20 AM)100% (Nov 14, 11:20 PM)30.33 "Hg (Nov 14, 11:20 PM)
Low32 °F (Nov 24, 5:20 AM)59% (Nov 18, 9:50 AM)29.39 "Hg (Nov 21, 1:50 PM)
Average48 °F83%29.97 "Hg
* Reported Nov 10 4:20 PM — Nov 25 4:50 PM, Sankt Augustin, Weather by CustomWeather, © 2015

Note: Actual official high and low records may vary slightly from our data, if they occured in-between our weather recording intervals... More about our weather records


Sankt Augustin weather history for previous 24 hours

Time TempWeatherWind HumidityBarometerVisibility
4:50 PM
Wed, Nov 25
43 °FSprinkles. Partly cloudy.9 mph87%29.68 "HgN/A
4:20 PM43 °FBroken clouds.3 mph93%29.68 "HgN/A
3:50 PM43 °FBroken clouds.3 mph93%29.68 "HgN/A
3:20 PM43 °FBroken clouds.5 mph93%29.68 "HgN/A
2:50 PM43 °FSprinkles. Broken clouds.8 mph93%29.68 "HgN/A
2:20 PM43 °FSprinkles. Broken clouds.13 mph93%29.68 "HgN/A
1:50 PM45 °FSprinkles. Broken clouds.13 mph87%29.68 "HgN/A
1:20 PM45 °FScattered showers. Broken clouds.6 mph93%29.68 "HgN/A
12:50 PM43 °FBroken clouds.5 mph93%29.68 "HgN/A
12:20 PM43 °FSprinkles. Partly sunny.9 mph93%29.68 "HgN/A
11:50 AM41 °FSprinkles. Broken clouds.2 mph100%29.71 "HgN/A
11:20 AM41 °FPartly sunny.5 mph93%29.71 "HgN/A
10:50 AM41 °FRain showers. Broken clouds.15 mph93%29.71 "HgN/A
10:20 AM43 °FPartly sunny.7 mph93%29.71 "HgN/A
9:50 AM41 °FPartly sunny.7 mph100%29.71 "HgN/A
9:20 AM41 °FPartly sunny.6 mph100%29.71 "HgN/A
8:50 AM39 °FPartly sunny.6 mph100%29.71 "HgN/A
7:50 AM37 °FPassing clouds.7 mph100%29.71 "HgN/A
7:20 AM37 °FLight rain. Passing clouds.8 mph100%29.71 "HgN/A
6:50 AM37 °FLight rain. Passing clouds.7 mph100%29.71 "HgN/A
5:50 AM36 °FLight rain. Passing clouds.8 mph100%29.71 "HgN/A
4:50 AM36 °FLight rain. Passing clouds.8 mph100%29.71 "HgN/A
4:20 AM36 °FLight rain. Passing clouds.8 mph100%29.71 "HgN/A
3:50 AM36 °FPassing clouds.7 mph100%29.71 "HgN/A
3:20 AM36 °FPassing clouds.9 mph100%29.74 "HgN/A
2:50 AM36 °FLight rain. Passing clouds.8 mph100%29.74 "HgN/A
2:20 AM36 °FLight rain. Passing clouds.8 mph100%29.74 "HgN/A
1:50 AM36 °FLight rain. Passing clouds.8 mph100%29.74 "HgN/A
1:20 AM34 °FLight rain. Passing clouds.8 mph100%29.77 "HgN/A
12:50 AM34 °FLight rain. Passing clouds.8 mph100%29.77 "HgN/A
12:20 AM34 °FLight rain. Passing clouds.7 mph100%29.80 "HgN/A
11:50 PM
Tue, Nov 24
34 °FLight rain. Passing clouds.7 mph100%29.80 "HgN/A
10:50 PM34 °FLight rain. Partly cloudy.8 mph100%29.80 "Hg6 mi
10:20 PM32 °FLight rain. Partly cloudy.7 mph100%29.83 "Hg6 mi
9:50 PM32 °FLight snow. Ice fog.7 mph100%29.83 "Hg2 mi
9:20 PM32 °FSnow. Ice fog.7 mph100%29.83 "Hg2 mi
8:50 PM32 °FLight snow. Ice fog.8 mph100%29.86 "Hg2 mi
8:20 PM32 °FLight snow. Ice fog.8 mph100%29.86 "Hg2 mi
7:50 PM32 °FLight snow. Ice fog.8 mph100%29.89 "Hg2 mi
7:20 PM32 °FSnow. Ice fog.8 mph100%29.89 "Hg2 mi
6:50 PM32 °FSnow. Ice fog.8 mph100%29.89 "Hg2 mi
6:20 PM34 °FLight snow. Fog.9 mph100%29.92 "Hg2 mi
Weather by CustomWeather, © 2015

See weather overviewHow to use our weather pages